Location: Unspecified
(0.0000°N, 0.0000°E)
Time: 21:24:23
(UTC+02:00)

Orbus 21S - Visible Passes

Search period start: 26 April 2015 00:00
Search period end: 06 May 2015 00:00
Orbit: 272 x 33395 km, 24.4° (Epoch: 26 April)

Date Brightness Start Highest point End Pass type
(mag) Time Alt. Az. Time Alt. Az. Time Alt. Az.
26 Apr 5.6 07:13:15 10° SW 07:20:06 27° SSE 16:06:32 10° ENE visible
27 Apr 6.5 12:54:13 10° WSW 21:42:52 39° NNW 21:57:01 11° NE visible
29 Apr 6.1 13:54:40 10° WSW 22:44:06 32° NNW 22:49:44 23° NNE visible
01 May 6.1 14:59:02 10° WSW 23:42:06 27° NNW 23:42:06 27° NNW visible
03 May 5.8 05:23:41 15° SSE 05:23:41 15° SSE 05:28:17 10° SE visible
04 May 6.6 00:29:31 10° NW 00:34:05 16° NW 00:34:05 16° NW visible
05 May 5.6 06:15:28 17° SSW 06:18:50 21° SSE 14:58:27 10° ENE visible
